This is the latest recevied weather packets stored in our database for station/object AE5TC. If no packets are shown the sender has not sent any weather packets the latest 10 day(s).
| Time | Temp. | Humidity | Pressure | Rain* | Wind** | Luminosity | Snow |
|---|---|---|---|---|---|---|---|
| 1778242658 | 22.22° C | 99% | 1014.2 hPa | 0 mm | - | 53 W/m² | - |
| 1778242356 | 22.22° C | 99% | 1013.9 hPa | 0 mm | - | 43 W/m² | - |
| 1778242053 | 22.22° C | 99% | 1013.7 hPa | 0 mm | - | 59 W/m² | - |
| 1778241752 | 22.22° C | 99% | 1013.8 hPa | 0 mm | - | 38 W/m² | - |
| 1778241449 | 22.22° C | 99% | 1013.7 hPa | 0 mm | - | 31 W/m² | - |
| 1778241146 | 22.22° C | 99% | 1013.8 hPa | 0 mm | - | 30 W/m² | - |
| 1778240842 | 22.22° C | 99% | 1013.7 hPa | 0 mm | - | 25 W/m² | - |
| 1778240539 | 22.22° C | 99% | 1013.5 hPa | 0 mm | - | 18 W/m² | - |
| 1778240235 | 22.22° C | 99% | 1013.6 hPa | 0 mm | - | 13 W/m² | - |
| 1778239934 | 22.22° C | 99% | 1013.7 hPa | 0 mm | - | 12 W/m² | - |
| 1778239630 | 22.22° C | 99% | 1013.5 hPa | 0 mm | - | 10 W/m² | - |
| 1778239327 | 22.22° C | 99% | 1013.1 hPa | 0 mm | - | 14 W/m² | - |
| 1778239023 | 22.22° C | 99% | 1013 hPa | 0 mm | - | 14 W/m² | - |
| 1778238721 | 22.22° C | 99% | 1013.2 hPa | 0 mm | - | 5 W/m² | - |
| 1778238418 | 22.22° C | 99% | 1012.9 hPa | 0 mm | - | 6 W/m² | - |
| 1778238115 | 22.78° C | 99% | 1013.1 hPa | 0 mm | - | 2 W/m² | - |
| 1778237809 | 22.78° C | 99% | 1013.1 hPa | 0 mm | - | 1 W/m² | - |
| 1778237506 | 22.78° C | 99% | 1012.8 hPa | 0 mm | - | 1 W/m² | - |
| 1778237204 | 22.78° C | 99% | 1012.8 hPa | 0 mm | - | 0 W/m² | - |
| 1778236901 | 22.78° C | 99% | 1012.7 hPa | 0 mm | - | 0 W/m² | - |
| 1778236598 | 22.78° C | 99% | 1012.8 hPa | 0 mm | - | 0 W/m² | - |
| 1778236295 | 22.78° C | 99% | 1012.7 hPa | 0 mm | - | 0 W/m² | - |
| 1778235992 | 22.78° C | 99% | 1012.5 hPa | 0 mm | - | 0 W/m² | - |
| 1778235690 | 22.78° C | 99% | 1012.6 hPa | 0 mm | - | 0 W/m² | - |
| 1778235382 | 22.78° C | 99% | 1012.4 hPa | 0 mm | - | 0 W/m² | - |
* Rain latest hour (hover to see other rain measurements)
** Current wind speed in m/s (hover to see current wind gust speed)